Regional Weather Roundup
Issued by NWS Cleveland, OH

Home | Current Version | Previous Version | Text Only | Print | Product List | Glossary On
Versions: 1 2 3 4 5 6 7 8 9 10 11 12 13 14 15 16 17 18 19 20 21 22 23 24 25 26 27 28 29 30 31 32 33 34 35 36 37 38 39 40 41 42 43 44 45 46 47 48 49 50
000
ASUS41 KCLE 242312
RWRCLE
OHIO REGIONAL WEATHER ROUNDUP
NATIONAL WEATHER SERVICE WILMINGTON, OH
700 PM EDT TUE APR 24 2018

NOTE: "FAIR" INDICATES FEW OR NO CLOUDS BELOW 12,000 FEET WITH NO
SIGNIFICANT WEATHER AND/OR OBSTRUCTIONS TO VISIBILITY.

OHZ001>008-015>018-024>027-034-035-043-044-250000-
   NORTHWEST OHIO

CITY           SKY/WX    TMP DP  RH WIND       PRES   REMARKS
DEFIANCE       CLOUDY    52  50  93 NE8       29.96R FOG
FINDLAY        LGT RAIN  54  51  90 E3        29.93S FOG
TOLEDO EXPRESS LGT RAIN  51  51 100 E12       29.96F FOG
TOLEDO EXEC    CLOUDY    50  48  93 E9        29.97F FOG
LIMA           LGT RAIN  53  53 100 NE3       29.93S
$$

OHZ009>014-019>023-028>033-038-089-250000-
   NORTHEAST OHIO

CITY           SKY/WX    TMP DP  RH WIND       PRES   REMARKS
CLE-HOPKINS    LGT RAIN  55  52  89 SE9       30.00S FOG
CLE-LAKEFRONT  LGT RAIN  55  50  83 SE8       29.97F
CUY CO. ARPT   LGT RAIN  55  52  88 SE17      29.98F
LORAIN-ELYRIA  LGT RAIN  53  48  83 E7        29.97S
ASHTABULA      LGT RAIN  53  50  89 SE12G21   30.02F
AKRON-CANTON   CLOUDY    54  49  83 SE10      29.97F
WOOSTER        LGT RAIN  52  51  97 E8        29.96F
MANSFIELD      CLOUDY    53  52  96 E16       29.93F
YOUNGSTOWN     LGT RAIN  52  49  89 E13       30.00F
$$

OHZ042-051>053-060>062-070>072-077>081-250000-
  SOUTHWEST OHIO

CITY           SKY/WX    TMP DP  RH WIND       PRES   REMARKS
CINC-COVINGTON DRIZZLE   55  54  96 N7        29.89S FOG
CINC-LUNKEN    CLOUDY    56  56 100 N5        29.90S FOG
HAMILTON       CLOUDY    56  53  90 N7        29.91S
DAYTON         CLOUDY    53  53 100 N6        29.92S FOG
WRIGHT-PAT AFB NOT AVBL
DAYTON GENERAL CLOUDY    55  53  93 NE5       29.89F FOG
WILMINGTON     CLOUDY    53  53 100 E3        29.89F FOG
$$

OHZ036-037-039>041-045>050-054>059-063>069-073>076-082>088-250000-
  CENTRAL AND SOUTHEAST OHIO

CITY           SKY/WX    TMP DP  RH WIND       PRES   REMARKS
COLUMBUS       LGT RAIN  55  52  89 E12       29.90F
OSU AIRPORT    CLOUDY    55  52  89 E9        29.91S
BOLTON FIELD   CLOUDY    54  52  94 E9        29.91F
RICKENBACK AFB DRIZZLE   54  54 100 E7        29.90S
NEWARK         CLOUDY    54  52  93 E8        29.91F
MARION         CLOUDY    54  51  90 SE12      29.93S FOG
LANCASTER      CLOUDY    54  52  93 E9        29.91F
ZANESVILLE     NOT AVBL
NEW PHILLY     LGT RAIN  54  51  90 SE10      29.96F
$$




USA.gov is the U.S. government's official web portal to all federal, state and local government web resources and services.